Kingstree, SC

5:36 AM EST on December 08, 2019 (GMT -0500)
Williamsburg County

Weather History for KCKI - October, 2019

Change the Weather History Date:

Friday, October 25, 2019

  Actual Average Record
Temperature  
Mean Temperature 68 °F -  
Max Temperature 78 °F 75 °F 82 °F (2012)
Min Temperature 59 °F 47 °F 37 °F (2018)
Cooling Degree Days 4    
Growing Degree Days 18 (Base 50)    
Moisture  
Dew Point 60 °F    
Average Humidity 81    
Maximum Humidity 100    
Minimum Humidity 44    
Precipitation  
Precipitation 0.00 in - - ()
Sea Level Pressure  
Sea Level Pressure 30.21 in    
Wind  
Wind Speed 2 mph ()    
Max Wind Speed 10 mph    
Max Gust Speed -    
Visibility 8.8 miles    
Events      
Averages and records for this station are not official NWS values.
T = Trace of Precipitation, MM = Missing Value Source: Averaged Metar Reports

Daily Weather History Graph

Daily Weather History Graph

Search for Another Location

Airport or City:

Astronomy

Oct. 25, 2019 Rise Set
Actual Time 7:32 AM EDT 6:34 PM EDT
Civil Twilight 7:06 AM EDT 6:59 PM EDT
Nautical Twilight 6:37 AM EDT 7:28 PM EDT
Astronomical Twilight 6:08 AM EDT 7:57 PM EDT
Moon 4:26 AM EDT (10/25) 5:24 PM EDT (10/25)
Length of Visible Light 11h 52m
Length of Day
11h 02m
Waning Crescent, 9% of the Moon is Illuminated
Oct 25
Waning Crescent
Oct 27
New
Nov 4
First Quarter
Nov 12
Full
Nov 19
Last Quarter

Hourly Weather History & Observations

Time (EDT) Temp. Dew Point Humidity Pressure Visibility Wind Dir Wind Speed Gust Speed Precip Events Conditions
12:15 AM 60.8 °F 59.0 °F 94% 30.27 in 10.0 mi Calm Calm - N/A   Clear
12:35 AM 60.8 °F 59.0 °F 94% 30.26 in 10.0 mi Calm Calm - N/A   Clear
12:55 AM 60.8 °F 59.0 °F 94% 30.26 in 10.0 mi Calm Calm - N/A   Clear
1:15 AM 60.8 °F 59.0 °F 94% 30.25 in 10.0 mi Calm Calm - N/A   Mostly Cloudy
1:35 AM 60.8 °F 59.0 °F 94% 30.25 in 10.0 mi Calm Calm - N/A   Scattered Clouds
1:55 AM 60.8 °F 59.0 °F 94% 30.25 in 10.0 mi Calm Calm - N/A   Mostly Cloudy
2:15 AM 60.8 °F 59.0 °F 94% 30.24 in 10.0 mi Calm Calm - N/A   Mostly Cloudy
2:35 AM 60.8 °F 59.0 °F 94% 30.24 in 10.0 mi Calm Calm - N/A   Overcast
2:55 AM 60.8 °F 59.0 °F 94% 30.24 in 10.0 mi Calm Calm - N/A   Overcast
3:35 AM 60.8 °F 59.0 °F 94% 30.23 in 10.0 mi Calm Calm - N/A   Clear
3:55 AM 59.0 °F 59.0 °F 100% 30.23 in 10.0 mi Calm Calm - N/A   Clear
4:15 AM 59.0 °F 59.0 °F 100% 30.23 in 10.0 mi Calm Calm - N/A   Clear
4:35 AM 60.8 °F 59.0 °F 94% 30.23 in 7.0 mi Calm Calm - N/A   Mostly Cloudy
4:55 AM 59.0 °F 59.0 °F 100% 30.23 in 7.0 mi Calm Calm - N/A   Scattered Clouds
5:15 AM 59.0 °F 57.2 °F 94% 30.22 in 7.0 mi Calm Calm - N/A   Clear
5:35 AM 59.0 °F 57.2 °F 94% 30.23 in 7.0 mi Calm Calm - N/A   Clear
5:55 AM 59.0 °F 57.2 °F 94% 30.23 in 7.0 mi Calm Calm - N/A   Clear
6:15 AM 59.0 °F 59.0 °F 100% 30.24 in 7.0 mi Calm Calm - N/A   Clear
6:35 AM 59.0 °F 57.2 °F 94% 30.23 in 10.0 mi Calm Calm - N/A   Clear
6:55 AM 59.0 °F 57.2 °F 94% 30.24 in 7.0 mi Calm Calm - N/A   Clear
7:15 AM 59.0 °F 57.2 °F 94% 30.23 in 10.0 mi Calm Calm - N/A   Clear
7:35 AM 59.0 °F 57.2 °F 94% 30.23 in 7.0 mi NNE 3.5 mph - N/A   Clear
7:55 AM 59.0 °F 57.2 °F 94% 30.24 in 7.0 mi NNE 3.5 mph - N/A   Clear
8:15 AM 59.0 °F 59.0 °F 100% 30.24 in 7.0 mi Calm Calm - N/A   Clear
8:35 AM 60.8 °F 59.0 °F 94% 30.25 in 7.0 mi Calm Calm - N/A   Clear
8:55 AM 60.8 °F 60.8 °F 100% 30.26 in 7.0 mi Calm Calm - N/A   Clear
9:15 AM 62.6 °F 60.8 °F 94% 30.27 in 10.0 mi Calm Calm - N/A   Clear
9:35 AM 62.6 °F 60.8 °F 94% 30.27 in 7.0 mi Calm Calm - N/A   Clear
10:15 AM 68.0 °F 62.6 °F 83% 30.27 in 10.0 mi NE 3.5 mph - N/A   Scattered Clouds
10:35 AM 69.8 °F 62.6 °F 78% 30.27 in 7.0 mi NE 4.6 mph - N/A   Overcast
10:55 AM 71.6 °F 62.6 °F 73% 30.26 in 7.0 mi NE 3.5 mph - N/A   Overcast
11:15 AM 71.6 °F 62.6 °F 73% 30.26 in 10.0 mi ENE 6.9 mph - N/A   Mostly Cloudy
11:35 AM 73.4 °F 62.6 °F 69% 30.26 in 7.0 mi East 3.5 mph - N/A   Scattered Clouds
11:55 AM 75.2 °F 60.8 °F 61% 30.24 in 7.0 mi East 10.4 mph - N/A   Clear
12:15 PM 77.0 °F 59.0 °F 54% 30.24 in 7.0 mi East 6.9 mph - N/A   Clear
12:35 PM 77.0 °F 57.2 °F 50% 30.24 in 7.0 mi East 5.8 mph - N/A   Scattered Clouds
12:55 PM 77.0 °F 55.4 °F 47% 30.23 in 7.0 mi East 8.1 mph - N/A   Scattered Clouds
1:15 PM 77.0 °F 55.4 °F 47% 30.21 in 10.0 mi ENE 10.4 mph - N/A   Scattered Clouds
1:35 PM 78.8 °F 55.4 °F 44% 30.20 in 7.0 mi East 5.8 mph - N/A   Scattered Clouds
1:55 PM 77.0 °F 55.4 °F 47% 30.19 in 7.0 mi East 3.5 mph - N/A   Mostly Cloudy
2:15 PM 77.0 °F 55.4 °F 47% 30.18 in 7.0 mi East 6.9 mph - N/A   Scattered Clouds
2:35 PM 77.0 °F 57.2 °F 50% 30.17 in 7.0 mi East 4.6 mph - N/A   Scattered Clouds
2:55 PM 77.0 °F 57.2 °F 50% 30.17 in 10.0 mi East 6.9 mph - N/A   Scattered Clouds
3:15 PM 77.0 °F 59.0 °F 54% 30.15 in 10.0 mi East 6.9 mph - N/A   Mostly Cloudy
3:35 PM 77.0 °F 57.2 °F 50% 30.16 in 10.0 mi East 6.9 mph - N/A   Overcast
3:55 PM 77.0 °F 57.2 °F 50% 30.16 in 10.0 mi East 4.6 mph - N/A   Mostly Cloudy
4:15 PM 75.2 °F 59.0 °F 57% 30.16 in 10.0 mi East 6.9 mph - N/A   Overcast
4:35 PM 77.0 °F 59.0 °F 54% 30.15 in 10.0 mi ESE 6.9 mph - N/A   Overcast
4:55 PM 75.2 °F 59.0 °F 57% 30.15 in 10.0 mi East 8.1 mph - N/A   Overcast
5:15 PM 75.2 °F 59.0 °F 57% 30.16 in 7.0 mi East 6.9 mph - N/A   Overcast
5:35 PM 73.4 °F 59.0 °F 61% 30.16 in 7.0 mi East 4.6 mph - N/A   Overcast
5:55 PM 71.6 °F 59.0 °F 64% 30.17 in 7.0 mi East 3.5 mph - N/A   Overcast
6:15 PM 71.6 °F 60.8 °F 69% 30.17 in 7.0 mi East 3.5 mph - N/A   Overcast
6:35 PM 71.6 °F 60.8 °F 69% 30.17 in 10.0 mi Calm Calm - N/A   Overcast
6:55 PM 69.8 °F 62.6 °F 78% 30.17 in 10.0 mi Calm Calm - N/A   Overcast
7:15 PM 69.8 °F 60.8 °F 73% 30.18 in 10.0 mi Calm Calm - N/A   Overcast
7:35 PM 68.0 °F 62.6 °F 83% 30.19 in 10.0 mi Calm Calm - N/A   Overcast
7:55 PM 68.0 °F 64.4 °F 88% 30.19 in 10.0 mi Calm Calm - N/A   Mostly Cloudy
8:15 PM 66.2 °F 64.4 °F 94% 30.19 in 10.0 mi Calm Calm - N/A   Mostly Cloudy
8:35 PM 64.4 °F 62.6 °F 94% 30.19 in 10.0 mi Calm Calm - N/A   Scattered Clouds
8:55 PM 62.6 °F 62.6 °F 100% 30.19 in 10.0 mi Calm Calm - N/A   Clear
9:15 PM 62.6 °F 60.8 °F 94% 30.20 in 7.0 mi Calm Calm - N/A   Clear
9:35 PM 62.6 °F 60.8 °F 94% 30.19 in 10.0 mi Calm Calm - N/A   Clear
9:55 PM 62.6 °F 62.6 °F 100% 30.19 in 10.0 mi East 6.9 mph - N/A   Clear
10:15 PM 64.4 °F 64.4 °F 100% 30.18 in 10.0 mi East 9.2 mph - N/A   Clear
10:35 PM 66.2 °F 64.4 °F 94% 30.18 in 10.0 mi East 8.1 mph - N/A   Clear
10:55 PM 66.2 °F 64.4 °F 94% 30.17 in 10.0 mi East 6.9 mph - N/A   Clear
11:15 PM 64.4 °F 64.4 °F 100% 30.17 in 10.0 mi East 8.1 mph - N/A   Clear
11:35 PM 66.2 °F 64.4 °F 94% 30.16 in 10.0 mi East 9.2 mph - N/A   Clear
11:55 PM 66.2 °F 64.4 °F 94% 30.16 in 10.0 mi East 9.2 mph - N/A   Clear